Location: Binningen
(47.7924°N, 8.7261°E)
Time: 23:07:24
(UTC+00:00)

EO 1 Delta rocket - Pass Details

Date: 17 May 2021
Orbit: 698 x 1791 km, 95.4° (Epoch: 24 June)

Event Time Altitude Azimuth Distance (km) Brightness Sun altitude
Exits shadow 23:29:07 44° 152° (SSE) 1,219 4.6 -22.6°
Maximum altitude 23:30:58 76° 76° (ENE) 978 4.5 -22.6°
Drops below altitude 10° 23:37:44 10° 353° (N) 3,052 8.2 -22.6°
Sets 23:40:41 0° 352° (N) 4,187 9.2 -22.5°
